owner,sensor,date,latitude,longitude,vertical_datum,sea_water_practical_salinity,qcFlag 
SCCF RECON,ioos:station:SCCF:18:1,2013-04-01T00:00:00Z,26.6955,-81.8138,1.83,2.08,1111122 
SCCF RECON,ioos:station:SCCF:18:1,2013-04-01T01:00:00Z,26.6955,-81.8138,1.777,1.62,1111122 
SCCF RECON,ioos:station:SCCF:18:1,2013-04-01T02:00:00Z,26.6955,-81.8138,1.69,1.41,1111122 
SCCF RECON,ioos:station:SCCF:18:1,2013-04-01T03:00:00Z,26.6955,-81.8138,1.62,1.37,1111122 
SCCF RECON,ioos:station:SCCF:18:1,2013-04-01T04:00:00Z,26.6955,-81.8138,1.58,1.15,1111122 
SCCF RECON,ioos:station:SCCF:18:1,2013-04-01T05:00:00Z,26.6955,-81.8138,1.52,1.07,1111122 
SCCF RECON,ioos:station:SCCF:18:1,2013-04-01T06:00:00Z,26.6955,-81.8138,1.46,1.09,1111122 
SCCF RECON,ioos:station:SCCF:18:1,2013-04-01T07:00:00Z,26.6955,-81.8138,1.401,1.06,1111122 
SCCF RECON,ioos:station:SCCF:18:1,2013-04-01T08:00:00Z,26.6955,-81.8138,1.38,1.07,1111122 
SCCF RECON,ioos:station:SCCF:18:1,2013-04-01T09:00:00Z,26.6955,-81.8138,1.41,1.08,1111122 
SCCF RECON,ioos:station:SCCF:18:1,2013-04-01T10:00:00Z,26.6955,-81.8138,1.469,1.11,1111122 
SCCF RECON,ioos:station:SCCF:18:1,2013-04-01T11:00:00Z,26.6955,-81.8138,1.53,1.13,1111122 
SCCF RECON,ioos:station:SCCF:18:1,2013-04-01T12:00:00Z,26.6955,-81.8138,1.569,1.11,1111122 
SCCF RECON,ioos:station:SCCF:18:1,2013-04-01T13:00:00Z,26.6955,-81.8138,1.6,1.14,1111122 
SCCF RECON,ioos:station:SCCF:18:1,2013-04-01T14:00:00Z,26.6955,-81.8138,1.63,1.14,1111122 
SCCF RECON,ioos:station:SCCF:18:1,2013-04-01T15:00:00Z,26.6955,-81.8138,1.62,1.1,1111122 
SCCF RECON,ioos:station:SCCF:18:1,2013-04-01T16:00:00Z,26.6955,-81.8138,1.59,0.98,1111122 
SCCF RECON,ioos:station:SCCF:18:1,2013-04-01T17:00:00Z,26.6955,-81.8138,1.59,1.11,1111122 
SCCF RECON,ioos:station:SCCF:18:1,2013-04-01T18:00:00Z,26.6955,-81.8138,1.623,1.22,1111122 
SCCF RECON,ioos:station:SCCF:18:1,2013-04-01T19:00:00Z,26.6955,-81.8138,1.66,1.28,1111122 
SCCF RECON,ioos:station:SCCF:18:1,2013-04-01T20:00:00Z,26.6955,-81.8138,1.7,1.32,1111122 
SCCF RECON,ioos:station:SCCF:18:1,2013-04-01T21:00:00Z,26.6955,-81.8138,1.74,1.33,1111122 
SCCF RECON,ioos:station:SCCF:18:1,2013-04-01T22:00:00Z,26.6955,-81.8138,1.78,1.41,1111122 
SCCF RECON,ioos:station:SCCF:18:1,2013-04-01T23:00:00Z,26.6955,-81.8138,1.83,1.49,1111122 
SCCF RECON,ioos:station:SCCF:18:1,2013-04-02T00:00:00Z,26.6955,-81.8138,1.85,1.46,1111122 
SCCF RECON,ioos:station:SCCF:18:1,2013-04-02T01:00:00Z,26.6955,-81.8138,1.82,1.56,1111122 
SCCF RECON,ioos:station:SCCF:18:1,2013-04-02T02:00:00Z,26.6955,-81.8138,1.75,1.17,1111122 
SCCF RECON,ioos:station:SCCF:18:1,2013-04-02T03:00:00Z,26.6955,-81.8138,1.69,1.14,1111122 
SCCF RECON,ioos:station:SCCF:18:1,2013-04-02T04:00:00Z,26.6955,-81.8138,1.64,1.2,1111122 
SCCF RECON,ioos:station:SCCF:18:1,2013-04-02T05:00:00Z,26.6955,-81.8138,1.588,1.11,1111122 
SCCF RECON,ioos:station:SCCF:18:1,2013-04-02T06:00:00Z,26.6955,-81.8138,1.53,1.1,1111122 
SCCF RECON,ioos:station:SCCF:18:1,2013-04-02T07:00:00Z,26.6955,-81.8138,1.47,1.07,1111122 
SCCF RECON,ioos:station:SCCF:18:1,2013-04-02T08:00:00Z,26.6955,-81.8138,1.42,0.99,1111122 
SCCF RECON,ioos:station:SCCF:18:1,2013-04-02T09:00:00Z,26.6955,-81.8138,1.38,0.96,1111122 
SCCF RECON,ioos:station:SCCF:18:1,2013-04-02T10:00:00Z,26.6955,-81.8138,1.38,1.07,1111122 
SCCF RECON,ioos:station:SCCF:18:1,2013-04-02T11:00:00Z,26.6955,-81.8138,1.42,0.88,1111122 
SCCF RECON,ioos:station:SCCF:18:1,2013-04-02T12:00:00Z,26.6955,-81.8138,1.48,0.97,1111122 
SCCF RECON,ioos:station:SCCF:18:1,2013-04-02T13:00:00Z,26.6955,-81.8138,1.53,1.03,1111122 
SCCF RECON,ioos:station:SCCF:18:1,2013-04-02T14:00:00Z,26.6955,-81.8138,1.56,1.05,1111122 
SCCF RECON,ioos:station:SCCF:18:1,2013-04-02T15:00:00Z,26.6955,-81.8138,1.57,1.04,1111122 
SCCF RECON,ioos:station:SCCF:18:1,2013-04-02T16:00:00Z,26.6955,-81.8138,1.57,1.02,1111122 
SCCF RECON,ioos:station:SCCF:18:1,2013-04-02T17:00:00Z,26.6955,-81.8138,1.57,1.0,1111122 
SCCF RECON,ioos:station:SCCF:18:1,2013-04-02T18:00:00Z,26.6955,-81.8138,1.563,0.96,1111122 
SCCF RECON,ioos:station:SCCF:18:1,2013-04-02T19:00:00Z,26.6955,-81.8138,1.54,0.93,1111122 
SCCF RECON,ioos:station:SCCF:18:1,2013-04-02T20:00:00Z,26.6955,-81.8138,1.53,0.94,1111122 
SCCF RECON,ioos:station:SCCF:18:1,2013-04-02T21:00:00Z,26.6955,-81.8138,1.592,1.02,1111122 
SCCF RECON,ioos:station:SCCF:18:1,2013-04-02T22:00:00Z,26.6955,-81.8138,1.66,1.13,1111122 
SCCF RECON,ioos:station:SCCF:18:1,2013-04-02T23:00:00Z,26.6955,-81.8138,1.71,1.11,1111122 
SCCF RECON,ioos:station:SCCF:18:1,2013-04-03T00:00:00Z,26.6955,-81.8138,1.74,1.15,1111122 
SCCF RECON,ioos:station:SCCF:18:1,2013-04-03T01:00:00Z,26.6955,-81.8138,1.77,1.17,1111122 
SCCF RECON,ioos:station:SCCF:18:1,2013-04-03T02:00:00Z,26.6955,-81.8138,1.76,1.15,1111122 
SCCF RECON,ioos:station:SCCF:18:1,2013-04-03T03:00:00Z,26.6955,-81.8138,1.7,1.13,1111122 
SCCF RECON,ioos:station:SCCF:18:1,2013-04-03T04:00:00Z,26.6955,-81.8138,1.63,1.04,1111122 
SCCF RECON,ioos:station:SCCF:18:1,2013-04-03T05:00:00Z,26.6955,-81.8138,1.58,1.04,1111122 
SCCF RECON,ioos:station:SCCF:18:1,2013-04-03T06:00:00Z,26.6955,-81.8138,1.54,0.95,1111122 
SCCF RECON,ioos:station:SCCF:18:1,2013-04-03T07:00:00Z,26.6955,-81.8138,1.47,0.92,1111122 
SCCF RECON,ioos:station:SCCF:18:1,2013-04-03T08:00:00Z,26.6955,-81.8138,1.42,0.9,1111122 
SCCF RECON,ioos:station:SCCF:18:1,2013-04-03T09:00:00Z,26.6955,-81.8138,1.37,0.9,1111122 
SCCF RECON,ioos:station:SCCF:18:1,2013-04-03T10:00:00Z,26.6955,-81.8138,1.34,0.89,1111122 
SCCF RECON,ioos:station:SCCF:18:1,2013-04-03T11:00:00Z,26.6955,-81.8138,1.33,0.84,1111122 
SCCF RECON,ioos:station:SCCF:18:1,2013-04-03T12:00:00Z,26.6955,-81.8138,1.36,0.85,1111122 
SCCF RECON,ioos:station:SCCF:18:1,2013-04-03T13:00:00Z,26.6955,-81.8138,1.41,0.95,1111122 
SCCF RECON,ioos:station:SCCF:18:1,2013-04-03T14:00:00Z,26.6955,-81.8138,1.48,0.89,1111122 
SCCF RECON,ioos:station:SCCF:18:1,2013-04-03T15:00:00Z,26.6955,-81.8138,1.53,0.88,1111122 
SCCF RECON,ioos:station:SCCF:18:1,2013-04-03T16:00:00Z,26.6955,-81.8138,1.55,0.87,1111122 
SCCF RECON,ioos:station:SCCF:18:1,2013-04-03T18:00:00Z,26.6955,-81.8138,1.63,0.91,1111122 
SCCF RECON,ioos:station:SCCF:18:1,2013-04-03T19:00:00Z,26.6955,-81.8138,1.668,1.0,1111122 
SCCF RECON,ioos:station:SCCF:18:1,2013-04-03T20:00:00Z,26.6955,-81.8138,1.7,1.17,1111122 
SCCF RECON,ioos:station:SCCF:18:1,2013-04-03T21:00:00Z,26.6955,-81.8138,1.73,1.19,1111122 
SCCF RECON,ioos:station:SCCF:18:1,2013-04-03T22:00:00Z,26.6955,-81.8138,1.76,1.47,1111122 
SCCF RECON,ioos:station:SCCF:18:1,2013-04-03T23:00:00Z,26.6955,-81.8138,1.8,1.5,1111122 
SCCF RECON,ioos:station:SCCF:18:1,2013-04-04T00:00:00Z,26.6955,-81.8138,1.83,2.01,1111122 
SCCF RECON,ioos:station:SCCF:18:1,2013-04-04T01:00:00Z,26.6955,-81.8138,1.87,1.85,1111122 
SCCF RECON,ioos:station:SCCF:18:1,2013-04-04T02:00:00Z,26.6955,-81.8138,1.9,1.78,1111122 
SCCF RECON,ioos:station:SCCF:18:1,2013-04-04T03:00:00Z,26.6955,-81.8138,1.89,1.56,1111122 
SCCF RECON,ioos:station:SCCF:18:1,2013-04-04T04:00:00Z,26.6955,-81.8138,1.85,1.13,1111122 
SCCF RECON,ioos:station:SCCF:18:1,2013-04-04T05:00:00Z,26.6955,-81.8138,1.771,0.97,1111122 
SCCF RECON,ioos:station:SCCF:18:1,2013-04-04T06:00:00Z,26.6955,-81.8138,1.72,0.94,1111122 
SCCF RECON,ioos:station:SCCF:18:1,2013-04-04T07:00:00Z,26.6955,-81.8138,1.669,1.17,1111122 
SCCF RECON,ioos:station:SCCF:18:1,2013-04-04T08:00:00Z,26.6955,-81.8138,1.61,0.92,1111122 
SCCF RECON,ioos:station:SCCF:18:1,2013-04-04T09:00:00Z,26.6955,-81.8138,1.55,0.9,1111122 
SCCF RECON,ioos:station:SCCF:18:1,2013-04-04T10:00:00Z,26.6955,-81.8138,1.51,0.93,1111122 
SCCF RECON,ioos:station:SCCF:18:1,2013-04-04T11:00:00Z,26.6955,-81.8138,1.47,0.92,1111122 
SCCF RECON,ioos:station:SCCF:18:1,2013-04-04T12:00:00Z,26.6955,-81.8138,1.46,0.89,1111122 
SCCF RECON,ioos:station:SCCF:18:1,2013-04-04T13:00:00Z,26.6955,-81.8138,1.48,0.93,1111122 
SCCF RECON,ioos:station:SCCF:18:1,2013-04-04T14:00:00Z,26.6955,-81.8138,1.53,0.95,1111122 
SCCF RECON,ioos:station:SCCF:18:1,2013-04-04T15:00:00Z,26.6955,-81.8138,1.59,1.04,1111122 
SCCF RECON,ioos:station:SCCF:18:1,2013-04-04T16:00:00Z,26.6955,-81.8138,1.65,1.07,1111122 
SCCF RECON,ioos:station:SCCF:18:1,2013-04-04T17:00:00Z,26.6955,-81.8138,1.71,1.12,1111122 
SCCF RECON,ioos:station:SCCF:18:1,2013-04-04T18:00:00Z,26.6955,-81.8138,1.736,1.25,1111122 
SCCF RECON,ioos:station:SCCF:18:1,2013-04-04T19:00:00Z,26.6955,-81.8138,1.77,1.33,1111122 
SCCF RECON,ioos:station:SCCF:18:1,2013-04-04T20:00:00Z,26.6955,-81.8138,1.71,1.25,1111122 
SCCF RECON,ioos:station:SCCF:18:1,2013-04-04T21:00:00Z,26.6955,-81.8138,1.63,1.04,1111122 
SCCF RECON,ioos:station:SCCF:18:1,2013-04-04T22:00:00Z,26.6955,-81.8138,1.53,0.99,1111122 
SCCF RECON,ioos:station:SCCF:18:1,2013-04-04T23:00:00Z,26.6955,-81.8138,1.52,1.02,1111122 
SCCF RECON,ioos:station:SCCF:18:1,2013-04-05T00:00:00Z,26.6955,-81.8138,1.53,0.91,1111122 
SCCF RECON,ioos:station:SCCF:18:1,2013-04-05T01:00:00Z,26.6955,-81.8138,1.47,0.89,1111122 
SCCF RECON,ioos:station:SCCF:18:1,2013-04-05T02:00:00Z,26.6955,-81.8138,1.538,1.06,1111122 
SCCF RECON,ioos:station:SCCF:18:1,2013-04-05T03:00:00Z,26.6955,-81.8138,1.64,1.44,1111122 
SCCF RECON,ioos:station:SCCF:18:1,2013-04-05T04:00:00Z,26.6955,-81.8138,1.73,1.36,1111122 
SCCF RECON,ioos:station:SCCF:18:1,2013-04-05T05:00:00Z,26.6955,-81.8138,1.73,1.42,1111122 
SCCF RECON,ioos:station:SCCF:18:1,2013-04-05T06:00:00Z,26.6955,-81.8138,1.7,1.53,1111122 
SCCF RECON,ioos:station:SCCF:18:1,2013-04-05T07:00:00Z,26.6955,-81.8138,1.61,1.12,1111122 
SCCF RECON,ioos:station:SCCF:18:1,2013-04-05T08:00:00Z,26.6955,-81.8138,1.54,0.9,1111122 
SCCF RECON,ioos:station:SCCF:18:1,2013-04-05T09:00:00Z,26.6955,-81.8138,1.51,0.96,1111122 
SCCF RECON,ioos:station:SCCF:18:1,2013-04-05T10:00:00Z,26.6955,-81.8138,1.51,0.98,1111122 
SCCF RECON,ioos:station:SCCF:18:1,2013-04-05T11:00:00Z,26.6955,-81.8138,1.47,1.21,1111122 
SCCF RECON,ioos:station:SCCF:18:1,2013-04-05T12:00:00Z,26.6955,-81.8138,1.54,1.22,1111122 
SCCF RECON,ioos:station:SCCF:18:1,2013-04-05T13:00:00Z,26.6955,-81.8138,1.63,1.43,1111122 
SCCF RECON,ioos:station:SCCF:18:1,2013-04-05T14:00:00Z,26.6955,-81.8138,1.67,1.34,1111122 
SCCF RECON,ioos:station:SCCF:18:1,2013-04-05T15:00:00Z,26.6955,-81.8138,1.64,1.2,1111122 
SCCF RECON,ioos:station:SCCF:18:1,2013-04-05T16:00:00Z,26.6955,-81.8138,1.7,1.3,1111122 
SCCF RECON,ioos:station:SCCF:18:1,2013-04-05T17:00:00Z,26.6955,-81.8138,1.77,1.57,1111122 
SCCF RECON,ioos:station:SCCF:18:1,2013-04-05T18:00:00Z,26.6955,-81.8138,1.81,1.61,1111122 
SCCF RECON,ioos:station:SCCF:18:1,2013-04-05T19:00:00Z,26.6955,-81.8138,1.79,1.46,1111122 
SCCF RECON,ioos:station:SCCF:18:1,2013-04-05T20:00:00Z,26.6955,-81.8138,1.73,1.35,1111122 
SCCF RECON,ioos:station:SCCF:18:1,2013-04-05T21:00:00Z,26.6955,-81.8138,1.68,1.29,1111122 
SCCF RECON,ioos:station:SCCF:18:1,2013-04-05T22:00:00Z,26.6955,-81.8138,1.61,1.21,1111122 
SCCF RECON,ioos:station:SCCF:18:1,2013-04-05T23:00:00Z,26.6955,-81.8138,1.58,1.16,1111122 
SCCF RECON,ioos:station:SCCF:18:1,2013-04-06T00:00:00Z,26.6955,-81.8138,1.57,1.14,1111122 
SCCF RECON,ioos:station:SCCF:18:1,2013-04-06T01:00:00Z,26.6955,-81.8138,1.55,1.19,1111122 
SCCF RECON,ioos:station:SCCF:18:1,2013-04-06T02:00:00Z,26.6955,-81.8138,1.54,1.14,1111122 
SCCF RECON,ioos:station:SCCF:18:1,2013-04-06T03:00:00Z,26.6955,-81.8138,1.59,1.07,1111122 
SCCF RECON,ioos:station:SCCF:18:1,2013-04-06T04:00:00Z,26.6955,-81.8138,1.63,1.24,1111122 
SCCF RECON,ioos:station:SCCF:18:1,2013-04-06T05:00:00Z,26.6955,-81.8138,1.65,1.23,1111122 
SCCF RECON,ioos:station:SCCF:18:1,2013-04-06T06:00:00Z,26.6955,-81.8138,1.63,1.18,1111122 
SCCF RECON,ioos:station:SCCF:18:1,2013-04-06T07:00:00Z,26.6955,-81.8138,1.58,1.09,1111122 
SCCF RECON,ioos:station:SCCF:18:1,2013-04-06T08:00:00Z,26.6955,-81.8138,1.52,1.08,1111122 
SCCF RECON,ioos:station:SCCF:18:1,2013-04-06T09:00:00Z,26.6955,-81.8138,1.47,1.05,1111122 
SCCF RECON,ioos:station:SCCF:18:1,2013-04-06T10:00:00Z,26.6955,-81.8138,1.43,1.09,1111122 
SCCF RECON,ioos:station:SCCF:18:1,2013-04-06T11:00:00Z,26.6955,-81.8138,1.41,1.07,1111122 
SCCF RECON,ioos:station:SCCF:18:1,2013-04-06T12:00:00Z,26.6955,-81.8138,1.37,1.01,1111122 
SCCF RECON,ioos:station:SCCF:18:1,2013-04-06T13:00:00Z,26.6955,-81.8138,1.33,0.98,1111122 
SCCF RECON,ioos:station:SCCF:18:1,2013-04-06T14:00:00Z,26.6955,-81.8138,1.29,0.9,1111122 
SCCF RECON,ioos:station:SCCF:18:1,2013-04-06T15:00:00Z,26.6955,-81.8138,1.3,0.91,1111122 
SCCF RECON,ioos:station:SCCF:18:1,2013-04-06T16:00:00Z,26.6955,-81.8138,1.35,1.1,1111122 
SCCF RECON,ioos:station:SCCF:18:1,2013-04-06T17:00:00Z,26.6955,-81.8138,1.423,1.18,1111122 
SCCF RECON,ioos:station:SCCF:18:1,2013-04-06T18:00:00Z,26.6955,-81.8138,1.48,1.14,1111122 
SCCF RECON,ioos:station:SCCF:18:1,2013-04-06T19:00:00Z,26.6955,-81.8138,1.51,1.08,1111122 
SCCF RECON,ioos:station:SCCF:18:1,2013-04-06T20:00:00Z,26.6955,-81.8138,1.51,1.05,1111122 
SCCF RECON,ioos:station:SCCF:18:1,2013-04-06T21:00:00Z,26.6955,-81.8138,1.46,1.05,1111122 
SCCF RECON,ioos:station:SCCF:18:1,2013-04-06T22:00:00Z,26.6955,-81.8138,1.45,1.0,1111122 
SCCF RECON,ioos:station:SCCF:18:1,2013-04-06T23:00:00Z,26.6955,-81.8138,1.42,1.03,1111122 
SCCF RECON,ioos:station:SCCF:18:1,2013-04-07T00:00:00Z,26.6955,-81.8138,1.39,0.99,1111122 
SCCF RECON,ioos:station:SCCF:18:1,2013-04-07T01:00:00Z,26.6955,-81.8138,1.36,0.98,1111122 
SCCF RECON,ioos:station:SCCF:18:1,2013-04-07T02:00:00Z,26.6955,-81.8138,1.38,0.96,1111122 
SCCF RECON,ioos:station:SCCF:18:1,2013-04-07T03:00:00Z,26.6955,-81.8138,1.42,1.1,1111122 
SCCF RECON,ioos:station:SCCF:18:1,2013-04-07T04:00:00Z,26.6955,-81.8138,1.484,1.05,1111122 
SCCF RECON,ioos:station:SCCF:18:1,2013-04-07T05:00:00Z,26.6955,-81.8138,1.53,1.16,1111122 
SCCF RECON,ioos:station:SCCF:18:1,2013-04-07T06:00:00Z,26.6955,-81.8138,1.57,1.23,1111122 
SCCF RECON,ioos:station:SCCF:18:1,2013-04-07T07:00:00Z,26.6955,-81.8138,1.59,1.22,1111122 
SCCF RECON,ioos:station:SCCF:18:1,2013-04-07T08:00:00Z,26.6955,-81.8138,1.57,1.17,1111122 
SCCF RECON,ioos:station:SCCF:18:1,2013-04-07T09:00:00Z,26.6955,-81.8138,1.5,1.05,1111122 
SCCF RECON,ioos:station:SCCF:18:1,2013-04-07T10:00:00Z,26.6955,-81.8138,1.44,0.94,1111122 
SCCF RECON,ioos:station:SCCF:18:1,2013-04-07T11:00:00Z,26.6955,-81.8138,1.41,0.95,1111122 
SCCF RECON,ioos:station:SCCF:18:1,2013-04-07T12:00:00Z,26.6955,-81.8138,1.38,0.97,1111122 
SCCF RECON,ioos:station:SCCF:18:1,2013-04-07T13:00:00Z,26.6955,-81.8138,1.34,0.97,1111122 
SCCF RECON,ioos:station:SCCF:18:1,2013-04-07T14:00:00Z,26.6955,-81.8138,1.31,1.0,1111122 
SCCF RECON,ioos:station:SCCF:18:1,2013-04-07T15:00:00Z,26.6955,-81.8138,1.33,1.0,1111122 
SCCF RECON,ioos:station:SCCF:18:1,2013-04-07T16:00:00Z,26.6955,-81.8138,1.395,1.43,1111122 
SCCF RECON,ioos:station:SCCF:18:1,2013-04-07T17:00:00Z,26.6955,-81.8138,1.47,1.09,1111122 
SCCF RECON,ioos:station:SCCF:18:1,2013-04-07T18:00:00Z,26.6955,-81.8138,1.52,1.09,1111122 
SCCF RECON,ioos:station:SCCF:18:1,2013-04-07T19:00:00Z,26.6955,-81.8138,1.54,1.13,1111122 
SCCF RECON,ioos:station:SCCF:18:1,2013-04-07T20:00:00Z,26.6955,-81.8138,1.55,1.04,1111122 
SCCF RECON,ioos:station:SCCF:18:1,2013-04-07T21:00:00Z,26.6955,-81.8138,1.51,1.02,1111122 
SCCF RECON,ioos:station:SCCF:18:1,2013-04-07T22:00:00Z,26.6955,-81.8138,1.45,1.11,1111122 
SCCF RECON,ioos:station:SCCF:18:1,2013-04-07T23:00:00Z,26.6955,-81.8138,1.4,1.09,1111122 
SCCF RECON,ioos:station:SCCF:18:1,2013-04-08T00:00:00Z,26.6955,-81.8138,1.36,1.09,1111122 
SCCF RECON,ioos:station:SCCF:18:1,2013-04-08T01:00:00Z,26.6955,-81.8138,1.331,1.11,1111122 
SCCF RECON,ioos:station:SCCF:18:1,2013-04-08T02:00:00Z,26.6955,-81.8138,1.31,1.11,1111122 
SCCF RECON,ioos:station:SCCF:18:1,2013-04-08T03:00:00Z,26.6955,-81.8138,1.33,1.09,1111122 
SCCF RECON,ioos:station:SCCF:18:1,2013-04-08T04:00:00Z,26.6955,-81.8138,1.39,1.41,1111122 
SCCF RECON,ioos:station:SCCF:18:1,2013-04-08T05:00:00Z,26.6955,-81.8138,1.47,1.26,1111122 
SCCF RECON,ioos:station:SCCF:18:1,2013-04-08T06:00:00Z,26.6955,-81.8138,1.53,1.21,1111122 
SCCF RECON,ioos:station:SCCF:18:1,2013-04-08T07:00:00Z,26.6955,-81.8138,1.56,1.35,1111122 
SCCF RECON,ioos:station:SCCF:18:1,2013-04-08T08:00:00Z,26.6955,-81.8138,1.58,1.39,1111122 
SCCF RECON,ioos:station:SCCF:18:1,2013-04-08T09:00:00Z,26.6955,-81.8138,1.58,1.24,1111122 
SCCF RECON,ioos:station:SCCF:18:1,2013-04-08T10:00:00Z,26.6955,-81.8138,1.52,1.19,1111122 
SCCF RECON,ioos:station:SCCF:18:1,2013-04-08T11:00:00Z,26.6955,-81.8138,1.46,1.16,1111122 
SCCF RECON,ioos:station:SCCF:18:1,2013-04-08T12:00:00Z,26.6955,-81.8138,1.44,1.17,1111122 
SCCF RECON,ioos:station:SCCF:18:1,2013-04-08T13:00:00Z,26.6955,-81.8138,1.41,1.16,1111122 
SCCF RECON,ioos:station:SCCF:18:1,2013-04-08T14:00:00Z,26.6955,-81.8138,1.38,1.14,1111122 
SCCF RECON,ioos:station:SCCF:18:1,2013-04-08T15:00:00Z,26.6955,-81.8138,1.38,1.19,1111122 
SCCF RECON,ioos:station:SCCF:18:1,2013-04-08T16:00:00Z,26.6955,-81.8138,1.45,1.42,1111122 
SCCF RECON,ioos:station:SCCF:18:1,2013-04-08T17:00:00Z,26.6955,-81.8138,1.53,1.38,1111122 
SCCF RECON,ioos:station:SCCF:18:1,2013-04-08T18:00:00Z,26.6955,-81.8138,1.58,1.36,1111122 
SCCF RECON,ioos:station:SCCF:18:1,2013-04-08T19:00:00Z,26.6955,-81.8138,1.61,1.34,1111122 
SCCF RECON,ioos:station:SCCF:18:1,2013-04-08T20:00:00Z,26.6955,-81.8138,1.64,1.53,1111122 
SCCF RECON,ioos:station:SCCF:18:1,2013-04-08T21:00:00Z,26.6955,-81.8138,1.63,1.22,1111122 
SCCF RECON,ioos:station:SCCF:18:1,2013-04-08T22:00:00Z,26.6955,-81.8138,1.56,1.25,1111122 
SCCF RECON,ioos:station:SCCF:18:1,2013-04-08T23:00:00Z,26.6955,-81.8138,1.509,1.24,1111122 
SCCF RECON,ioos:station:SCCF:18:1,2013-04-09T00:00:00Z,26.6955,-81.8138,1.47,1.24,1111122 
SCCF RECON,ioos:station:SCCF:18:1,2013-04-09T01:00:00Z,26.6955,-81.8138,1.46,1.24,1111122 
SCCF RECON,ioos:station:SCCF:18:1,2013-04-09T02:00:00Z,26.6955,-81.8138,1.426,1.24,1111122 
SCCF RECON,ioos:station:SCCF:18:1,2013-04-09T03:00:00Z,26.6955,-81.8138,1.39,1.14,1111122 
SCCF RECON,ioos:station:SCCF:18:1,2013-04-09T04:00:00Z,26.6955,-81.8138,1.41,1.19,1111122 
SCCF RECON,ioos:station:SCCF:18:1,2013-04-09T05:00:00Z,26.6955,-81.8138,1.48,1.71,1111122 
SCCF RECON,ioos:station:SCCF:18:1,2013-04-09T06:00:00Z,26.6955,-81.8138,1.57,1.51,1111122 
SCCF RECON,ioos:station:SCCF:18:1,2013-04-09T07:00:00Z,26.6955,-81.8138,1.61,1.73,1111122 
SCCF RECON,ioos:station:SCCF:18:1,2013-04-09T08:00:00Z,26.6955,-81.8138,1.65,1.62,1111122 
SCCF RECON,ioos:station:SCCF:18:1,2013-04-09T09:00:00Z,26.6955,-81.8138,1.66,1.7,1111122 
SCCF RECON,ioos:station:SCCF:18:1,2013-04-09T10:00:00Z,26.6955,-81.8138,1.62,1.2,1111122 
SCCF RECON,ioos:station:SCCF:18:1,2013-04-09T11:00:00Z,26.6955,-81.8138,1.56,1.15,1111122 
SCCF RECON,ioos:station:SCCF:18:1,2013-04-09T12:00:00Z,26.6955,-81.8138,1.51,1.22,1111122 
SCCF RECON,ioos:station:SCCF:18:1,2013-04-09T13:00:00Z,26.6955,-81.8138,1.48,1.2,1111122 
SCCF RECON,ioos:station:SCCF:18:1,2013-04-09T14:00:00Z,26.6955,-81.8138,1.45,1.12,1111122 
SCCF RECON,ioos:station:SCCF:18:1,2013-04-09T15:00:00Z,26.6955,-81.8138,1.43,1.07,1111122 
SCCF RECON,ioos:station:SCCF:18:1,2013-04-09T16:00:00Z,26.6955,-81.8138,1.469,1.09,1111122 
SCCF RECON,ioos:station:SCCF:18:1,2013-04-09T17:00:00Z,26.6955,-81.8138,1.55,1.46,1111122 
SCCF RECON,ioos:station:SCCF:18:1,2013-04-09T18:00:00Z,26.6955,-81.8138,1.62,1.36,1111122 
SCCF RECON,ioos:station:SCCF:18:1,2013-04-09T19:00:00Z,26.6955,-81.8138,1.66,1.41,1111122 
SCCF RECON,ioos:station:SCCF:18:1,2013-04-09T20:00:00Z,26.6955,-81.8138,1.69,1.46,1111122 
SCCF RECON,ioos:station:SCCF:18:1,2013-04-09T21:00:00Z,26.6955,-81.8138,1.69,1.13,1111122 
SCCF RECON,ioos:station:SCCF:18:1,2013-04-09T22:00:00Z,26.6955,-81.8138,1.64,1.16,1111122 
SCCF RECON,ioos:station:SCCF:18:1,2013-04-09T23:00:00Z,26.6955,-81.8138,1.58,1.2,1111122 
SCCF RECON,ioos:station:SCCF:18:1,2013-04-10T00:00:00Z,26.6955,-81.8138,1.52,1.16,1111122 
SCCF RECON,ioos:station:SCCF:18:1,2013-04-10T01:00:00Z,26.6955,-81.8138,1.49,1.14,1111122 
SCCF RECON,ioos:station:SCCF:18:1,2013-04-10T02:00:00Z,26.6955,-81.8138,1.45,1.07,1111122 
SCCF RECON,ioos:station:SCCF:18:1,2013-04-10T03:00:00Z,26.6955,-81.8138,1.41,1.04,1111122 
SCCF RECON,ioos:station:SCCF:18:1,2013-04-10T04:00:00Z,26.6955,-81.8138,1.37,1.06,1111122 
SCCF RECON,ioos:station:SCCF:18:1,2013-04-10T05:00:00Z,26.6955,-81.8138,1.41,1.12,1111122 
SCCF RECON,ioos:station:SCCF:18:1,2013-04-10T06:00:00Z,26.6955,-81.8138,1.48,1.42,1111122 
SCCF RECON,ioos:station:SCCF:18:1,2013-04-10T07:00:00Z,26.6955,-81.8138,1.56,1.36,1111122 
SCCF RECON,ioos:station:SCCF:18:1,2013-04-10T08:00:00Z,26.6955,-81.8138,1.6,1.39,1111122 
SCCF RECON,ioos:station:SCCF:18:1,2013-04-10T09:00:00Z,26.6955,-81.8138,1.62,1.36,1111122 
SCCF RECON,ioos:station:SCCF:18:1,2013-04-10T10:00:00Z,26.6955,-81.8138,1.61,1.33,1111122 
SCCF RECON,ioos:station:SCCF:18:1,2013-04-10T11:00:00Z,26.6955,-81.8138,1.57,1.03,1111122 
SCCF RECON,ioos:station:SCCF:18:1,2013-04-10T12:00:00Z,26.6955,-81.8138,1.5,1.09,1111122 
SCCF RECON,ioos:station:SCCF:18:1,2013-04-10T13:00:00Z,26.6955,-81.8138,1.47,1.05,1111122 
SCCF RECON,ioos:station:SCCF:18:1,2013-04-10T14:00:00Z,26.6955,-81.8138,1.44,1.07,1111122 
SCCF RECON,ioos:station:SCCF:18:1,2013-04-10T15:00:00Z,26.6955,-81.8138,1.416,1.05,1111122 
SCCF RECON,ioos:station:SCCF:18:1,2013-04-10T16:00:00Z,26.6955,-81.8138,1.421,0.97,1111122 
SCCF RECON,ioos:station:SCCF:18:1,2013-04-10T17:00:00Z,26.6955,-81.8138,1.51,1.41,1111122 
SCCF RECON,ioos:station:SCCF:18:1,2013-04-10T18:00:00Z,26.6955,-81.8138,1.593,1.45,1111122 
SCCF RECON,ioos:station:SCCF:18:1,2013-04-10T19:00:00Z,26.6955,-81.8138,1.65,1.33,1111122 
SCCF RECON,ioos:station:SCCF:18:1,2013-04-10T20:00:00Z,26.6955,-81.8138,1.69,1.95,1111122 
SCCF RECON,ioos:station:SCCF:18:1,2013-04-10T21:00:00Z,26.6955,-81.8138,1.76,1.74,1111122 
SCCF RECON,ioos:station:SCCF:18:1,2013-04-10T22:00:00Z,26.6955,-81.8138,1.77,1.81,1111122 
SCCF RECON,ioos:station:SCCF:18:1,2013-04-10T23:00:00Z,26.6955,-81.8138,1.68,1.37,1111122 
SCCF RECON,ioos:station:SCCF:18:1,2013-04-11T00:00:00Z,26.6955,-81.8138,1.57,1.18,1111122 
SCCF RECON,ioos:station:SCCF:18:1,2013-04-11T01:00:00Z,26.6955,-81.8138,1.52,1.43,1111122 
SCCF RECON,ioos:station:SCCF:18:1,2013-04-11T02:00:00Z,26.6955,-81.8138,1.49,1.17,1111122 
SCCF RECON,ioos:station:SCCF:18:1,2013-04-11T03:00:00Z,26.6955,-81.8138,1.45,1.08,1111122 
SCCF RECON,ioos:station:SCCF:18:1,2013-04-11T04:00:00Z,26.6955,-81.8138,1.397,1.1,1111122 
SCCF RECON,ioos:station:SCCF:18:1,2013-04-11T05:00:00Z,26.6955,-81.8138,1.37,1.1,1111122 
SCCF RECON,ioos:station:SCCF:18:1,2013-04-11T06:00:00Z,26.6955,-81.8138,1.43,1.2,1111122 
SCCF RECON,ioos:station:SCCF:18:1,2013-04-11T07:00:00Z,26.6955,-81.8138,1.5,1.64,1111122 
SCCF RECON,ioos:station:SCCF:18:1,2013-04-11T08:00:00Z,26.6955,-81.8138,1.563,1.4,1111122 
SCCF RECON,ioos:station:SCCF:18:1,2013-04-11T09:00:00Z,26.6955,-81.8138,1.59,1.43,1111122 
SCCF RECON,ioos:station:SCCF:18:1,2013-04-11T10:00:00Z,26.6955,-81.8138,1.61,1.41,1111122 
SCCF RECON,ioos:station:SCCF:18:1,2013-04-11T11:00:00Z,26.6955,-81.8138,1.6,1.28,1111122 
SCCF RECON,ioos:station:SCCF:18:1,2013-04-11T12:00:00Z,26.6955,-81.8138,1.57,1.24,1111122 
SCCF RECON,ioos:station:SCCF:18:1,2013-04-11T13:00:00Z,26.6955,-81.8138,1.51,1.18,1111122 
SCCF RECON,ioos:station:SCCF:18:1,2013-04-11T14:00:00Z,26.6955,-81.8138,1.48,1.19,1111122 
SCCF RECON,ioos:station:SCCF:18:1,2013-04-11T15:00:00Z,26.6955,-81.8138,1.47,1.19,1111122 
SCCF RECON,ioos:station:SCCF:18:1,2013-04-11T16:00:00Z,26.6955,-81.8138,1.46,1.16,1111122 
SCCF RECON,ioos:station:SCCF:18:1,2013-04-11T17:00:00Z,26.6955,-81.8138,1.522,1.41,1111122 
SCCF RECON,ioos:station:SCCF:18:1,2013-04-11T18:00:00Z,26.6955,-81.8138,1.604,1.33,1111122 
SCCF RECON,ioos:station:SCCF:18:1,2013-04-11T19:00:00Z,26.6955,-81.8138,1.667,1.27,1111122 
SCCF RECON,ioos:station:SCCF:18:1,2013-04-11T20:00:00Z,26.6955,-81.8138,1.71,1.59,1111122 
SCCF RECON,ioos:station:SCCF:18:1,2013-04-11T21:00:00Z,26.6955,-81.8138,1.76,1.51,1111122 
SCCF RECON,ioos:station:SCCF:18:1,2013-04-11T22:00:00Z,26.6955,-81.8138,1.79,1.37,1111122 